,,,PA_Meas_PMT16A,,PR_Meas_QMR101_102,,RH_Meas_QMH101,,SR_Meas_QMS101,,TA_Meas_QMH101,,GenWind,,GenWind,
date,time,status,PA,status,PR,status,RH,status,SR,status,TA,status,DirAvg,status,SpdAvg,
2008-03-04, 00:00:04,VALID,1003.66,VALID,0,VALID,96.6732,VALID,0,VALID,22.3819,VALID,99,VALID,1.09414,
2008-03-04, 00:01:04,VALID,1003.67,VALID,0,VALID,96.6961,VALID,0,VALID,22.3819,VALID,43,VALID,0.353906,
2008-03-04, 00:02:04,VALID,1003.68,VALID,0,VALID,96.7266,VALID,0,VALID,22.4014,VALID,88,VALID,0.552734,
2008-03-04, 00:03:04,VALID,1003.65,VALID,0,VALID,96.5893,VALID,0,VALID,22.3235,VALID,54,VALID,0.985156,
2008-03-04, 00:04:04,VALID,1003.63,VALID,0,VALID,96.6503,VALID,0,VALID,22.3235,VALID,65,VALID,0.408984,
2008-03-04, 00:05:04,VALID,1003.57,VALID,0,VALID,96.6808,VALID,0,VALID,22.3041,VALID,86,VALID,0.722266,
2008-03-04, 00:06:04,VALID,1003.57,VALID,0,VALID,96.78,VALID,0,VALID,22.3041,VALID,93,VALID,0.567187,
2008-03-04, 00:07:04,VALID,1003.56,VALID,0,VALID,96.8563,VALID,0,VALID,22.343,VALID,115,VALID,0.941406,
2008-03-04, 00:08:04,VALID,1003.57,VALID,0,VALID,96.8563,VALID,0,VALID,22.3625,VALID,106,VALID,0.99375,
2008-03-04, 00:09:04,VALID,1003.56,VALID,0,VALID,96.8563,VALID,0,VALID,22.3625,VALID,99,VALID,1.39375,
2008-03-04, 00:10:04,VALID,1003.6,VALID,0,VALID,96.8868,VALID,0,VALID,22.4031,VALID,85,VALID,0.838281,
2008-03-04, 00:11:04,VALID,1003.6,VALID,0,VALID,96.902,VALID,0,VALID,22.4014,VALID,73,VALID,0.507422,
2008-03-04, 00:12:04,VALID,1003.62,VALID,0,VALID,96.9326,VALID,0,VALID,22.4208,VALID,39,VALID,0.64375,
2008-03-04, 00:13:04,VALID,1003.58,VALID,0,VALID,96.9707,VALID,0,VALID,22.4597,VALID,30,VALID,0.793359,
2008-03-04, 00:14:04,VALID,1003.57,VALID,0,VALID,96.8258,VALID,0,VALID,22.4014,VALID,36,VALID,1.28555,
2008-03-04, 00:15:04,VALID,1003.48,VALID,0,VALID,96.6121,VALID,0,VALID,22.343,VALID,22,VALID,1.48047,
2008-03-04, 00:16:04,VALID,1003.41,VALID,0,VALID,96.429,VALID,0,VALID,22.2846,VALID,31,VALID,2.16406,
2008-03-04, 00:17:04,VALID,1003.36,VALID,0,VALID,96.4367,VALID,0,VALID,22.2635,VALID,56,VALID,1.80625,
2008-03-04, 00:18:04,VALID,1003.3,VALID,0,VALID,96.3222,VALID,0,VALID,22.3041,VALID,34,VALID,2.62422,
2008-03-04, 00:19:04,VALID,1003.25,VALID,0,VALID,96.4367,VALID,0,VALID,22.3041,VALID,27,VALID,1.79961,
2008-03-04, 00:20:04,VALID,1003.27,VALID,0,VALID,96.5282,VALID,0,VALID,22.343,VALID,30,VALID,1.67656,
2008-03-04, 00:21:04,VALID,1003.24,VALID,0,VALID,96.5435,VALID,0,VALID,22.343,VALID,70,VALID,0.891016,
2008-03-04, 00:22:04,VALID,1003.27,VALID,0,VALID,96.6198,VALID,0,VALID,22.3625,VALID,76,VALID,1.12539,
2008-03-04, 00:23:04,VALID,1003.23,VALID,0,VALID,96.6732,VALID,0,VALID,22.3836,VALID,88,VALID,1.2625,
2008-03-04, 00:24:04,VALID,1003.23,VALID,0,VALID,96.6427,VALID,0,VALID,22.3608,VALID,109,VALID,1.60312,
2008-03-04, 00:25:04,VALID,1003.22,VALID,0,VALID,96.7037,VALID,0,VALID,22.4014,VALID,107,VALID,2.20977,
2008-03-04, 00:26:04,VALID,1003.21,VALID,0,VALID,96.7037,VALID,0,VALID,22.4403,VALID,91,VALID,2.24883,
2008-03-04, 00:27:04,VALID,1003.22,VALID,0,VALID,96.7495,VALID,0,VALID,22.4597,VALID,103,VALID,1.96523,
2008-03-04, 00:28:04,VALID,1003.22,VALID,0,VALID,96.7723,VALID,0,VALID,22.4792,VALID,101,VALID,1.2832,
2008-03-04, 00:29:04,VALID,1003.22,VALID,0,VALID,96.78,VALID,0,VALID,22.5181,VALID,88,VALID,1.91914,
2008-03-04, 00:30:04,VALID,1003.19,VALID,0,VALID,96.78,VALID,0,VALID,22.5376,VALID,79,VALID,1.75898,
2008-03-04, 00:31:04,VALID,1003.2,VALID,0,VALID,96.7876,VALID,0,VALID,22.557,VALID,94,VALID,1.49258,
2008-03-04, 00:32:04,VALID,1003.19,VALID,0,VALID,96.8105,VALID,0,VALID,22.5765,VALID,88,VALID,1.43242,
2008-03-04, 00:33:04,VALID,1003.21,VALID,0,VALID,96.8486,VALID,0,VALID,22.6154,VALID,73,VALID,1.46953,
2008-03-04, 00:34:04,VALID,1003.19,VALID,0,VALID,96.8639,VALID,0,VALID,22.6154,VALID,92,VALID,0.966016,
2008-03-04, 00:35:04,VALID,1003.17,VALID,0,VALID,96.902,VALID,0.100563,VALID,22.6543,VALID,84,VALID,1.42461,
2008-03-04, 00:36:04,VALID,1003.21,VALID,0,VALID,96.9097,VALID,0,VALID,22.6933,VALID,78,VALID,0.860547,
2008-03-04, 00:37:04,VALID,1003.24,VALID,0,VALID,96.9173,VALID,0,VALID,22.6933,VALID,88,VALID,1.16289,
2008-03-04, 00:38:04,VALID,1003.31,VALID,0,VALID,96.9097,VALID,0,VALID,22.7339,VALID,81,VALID,1.66602,
2008-03-04, 00:39:04,VALID,1003.38,VALID,0,VALID,96.9173,VALID,0,VALID,22.7127,VALID,79,VALID,1.2707,
2008-03-04, 00:40:04,VALID,1003.43,VALID,0,VALID,96.9402,VALID,0,VALID,22.711,VALID,75,VALID,1.04961,
2008-03-04, 00:41:04,VALID,1003.47,VALID,0,VALID,96.9402,VALID,0,VALID,22.7516,VALID,69,VALID,1.33125,
2008-03-04, 00:42:04,VALID,1003.49,VALID,0,VALID,96.8868,VALID,0,VALID,22.7322,VALID,99,VALID,1.38359,
2008-03-04, 00:43:04,VALID,1003.5,VALID,0,VALID,96.902,VALID,0.100563,VALID,22.7516,VALID,99,VALID,1.56836,
2008-03-04, 00:44:04,VALID,1003.55,VALID,0,VALID,96.902,VALID,0.100563,VALID,22.7728,VALID,87,VALID,1.69961,
2008-03-04, 00:45:04,VALID,1003.5,VALID,0,VALID,96.9097,VALID,0,VALID,22.7711,VALID,58,VALID,1.12109,
2008-03-04, 00:46:04,VALID,1003.51,VALID,0,VALID,96.8792,VALID,0,VALID,22.7711,VALID,31,VALID,1.91953,
2008-03-04, 00:47:04,VALID,1003.52,VALID,0,VALID,96.8715,VALID,0.100563,VALID,22.7516,VALID,68,VALID,1.73633,
2008-03-04, 00:48:04,VALID,1003.58,VALID,0,VALID,96.8715,VALID,0,VALID,22.7711,VALID,34,VALID,1.37422,
2008-03-04, 00:49:04,VALID,1003.54,VALID,0.5,VALID,96.8715,VALID,0,VALID,22.7711,VALID,63,VALID,1.51719,
2008-03-04, 00:50:04,VALID,1003.53,VALID,0,VALID,96.8792,VALID,0,VALID,22.7711,VALID,85,VALID,1.50039,
2008-03-04, 00:51:04,VALID,1003.52,VALID,0,VALID,96.9173,VALID,0,VALID,22.7711,VALID,40,VALID,0.727344,
2008-03-04, 00:52:04,VALID,1003.5,VALID,0,VALID,96.9097,VALID,0.100563,VALID,22.7711,VALID,48,VALID,0.813281,
2008-03-04, 00:53:04,VALID,1003.46,VALID,0,VALID,96.9173,VALID,0,VALID,22.7711,VALID,60,VALID,1.29062,
2008-03-04, 00:54:04,VALID,1003.43,VALID,0,VALID,96.9173,VALID,0,VALID,22.7906,VALID,85,VALID,1.02227,
2008-03-04, 00:55:04,VALID,1003.45,VALID,0,VALID,96.9326,VALID,0.100563,VALID,22.7711,VALID,83,VALID,1.0168,
2008-03-04, 00:56:04,VALID,1003.38,VALID,0,VALID,96.9326,VALID,0,VALID,22.7906,VALID,78,VALID,1.30156,
2008-03-04, 00:57:04,VALID,1003.35,VALID,0,VALID,96.9554,VALID,0,VALID,22.7906,VALID,79,VALID,1.30664,
2008-03-04, 00:58:04,VALID,1003.36,VALID,0,VALID,96.9707,VALID,0,VALID,22.81,VALID,23,VALID,1.16562,
2008-03-04, 00:59:04,VALID,1003.34,VALID,0,VALID,96.9783,VALID,0,VALID,22.8295,VALID,43,VALID,1.31992,
2008-03-04, 01:00:04,VALID,1003.33,VALID,0,VALID,96.9783,VALID,0,VALID,22.8295,VALID,33,VALID,1.0043,
2008-03-04, 01:01:04,VALID,1003.36,VALID,0,VALID,96.9783,VALID,0,VALID,22.8295,VALID,37,VALID,0.903125,
2008-03-04, 01:02:04,VALID,1003.41,VALID,0,VALID,96.9707,VALID,0,VALID,22.8295,VALID,31,VALID,1.15469,
2008-03-04, 01:03:04,VALID,1003.45,VALID,0,VALID,96.9326,VALID,0,VALID,22.8295,VALID,68,VALID,1.37109,
2008-03-04, 01:04:04,VALID,1003.49,VALID,0,VALID,96.9631,VALID,0,VALID,22.8312,VALID,103,VALID,1.40078,
2008-03-04, 01:05:04,VALID,1003.52,VALID,0,VALID,96.9707,VALID,0,VALID,22.8507,VALID,87,VALID,1.89688,
2008-03-04, 01:06:04,VALID,1003.59,VALID,0,VALID,96.9783,VALID,0,VALID,22.8295,VALID,77,VALID,1.36602,
2008-03-04, 01:07:04,VALID,1003.61,VALID,0,VALID,96.9478,VALID,0,VALID,22.8295,VALID,69,VALID,1.61797,
2008-03-04, 01:08:04,VALID,1003.64,VALID,0,VALID,96.9173,VALID,0,VALID,22.81,VALID,47,VALID,1.8707,
2008-03-04, 01:09:04,VALID,1003.62,VALID,0,VALID,96.9249,VALID,0,VALID,22.81,VALID,56,VALID,1.64023,
2008-03-04, 01:10:04,VALID,1003.63,VALID,0.5,VALID,96.8944,VALID,0,VALID,22.7711,VALID,74,VALID,2.23438,
2008-03-04, 01:11:04,VALID,1003.65,VALID,0,VALID,96.8563,VALID,0,VALID,22.7305,VALID,66,VALID,1.58633,
2008-03-04, 01:12:04,VALID,1003.61,VALID,0,VALID,96.841,VALID,0,VALID,22.7322,VALID,12,VALID,1.44336,
2008-03-04, 01:13:04,VALID,1003.6,VALID,0,VALID,96.841,VALID,0,VALID,22.7322,VALID,22,VALID,0.795703,
2008-03-04, 01:14:04,VALID,1003.57,VALID,0,VALID,96.841,VALID,0,VALID,22.6933,VALID,85,VALID,1.06797,
2008-03-04, 01:15:04,VALID,1003.57,VALID,0,VALID,96.8181,VALID,0,VALID,22.6543,VALID,73,VALID,0.859375,
2008-03-04, 01:16:04,VALID,1003.57,VALID,0,VALID,96.78,VALID,0,VALID,22.596,VALID,78,VALID,1.14336,
2008-03-04, 01:17:04,VALID,1003.57,VALID,0,VALID,96.8258,VALID,0,VALID,22.5765,VALID,85,VALID,1.06953,
2008-03-04, 01:18:04,VALID,1003.61,VALID,0,VALID,96.8029,VALID,0,VALID,22.557,VALID,77,VALID,1.5957,
2008-03-04, 01:19:04,VALID,1003.58,VALID,0.5,VALID,96.841,VALID,0,VALID,22.557,VALID,36,VALID,0.728125,
2008-03-04, 01:20:04,VALID,1003.58,VALID,0,VALID,96.902,VALID,0,VALID,22.5765,VALID,74,VALID,0.498047,
2008-03-04, 01:21:04,VALID,1003.53,VALID,0,VALID,96.8944,VALID,0,VALID,22.5376,VALID,16,VALID,0.778906,
2008-03-04, 01:22:04,VALID,1003.51,VALID,0,VALID,96.9097,VALID,0,VALID,22.557,VALID,12,VALID,1.28398,
2008-03-04, 01:23:04,VALID,1003.46,VALID,0,VALID,96.9097,VALID,0,VALID,22.5376,VALID,1,VALID,0.578125,
2008-03-04, 01:24:04,VALID,1003.43,VALID,0,VALID,96.9402,VALID,0,VALID,22.5376,VALID,6,VALID,0.328906,
2008-03-04, 01:25:04,VALID,1003.38,VALID,0,VALID,96.9936,VALID,0.100563,VALID,22.557,VALID,355,VALID,0.00703125,
2008-03-04, 01:26:04,VALID,1003.41,VALID,0,VALID,97.0165,VALID,0.100563,VALID,22.5359,VALID,354,VALID,0.323438,
2008-03-04, 01:27:04,VALID,1003.4,VALID,0,VALID,97.0088,VALID,0,VALID,22.557,VALID,354,VALID,0.2625,
2008-03-04, 01:28:04,VALID,1003.41,VALID,0,VALID,97.0088,VALID,0,VALID,22.557,VALID,352,VALID,0.5875,
2008-03-04, 01:29:04,VALID,1003.42,VALID,0,VALID,97.0088,VALID,0.100563,VALID,22.557,VALID,351,VALID,0.849609,
2008-03-04, 01:30:04,VALID,1003.38,VALID,0,VALID,96.9936,VALID,0,VALID,22.5748,VALID,348,VALID,0.835156,
2008-03-04, 01:31:04,VALID,1003.37,VALID,0,VALID,97.0317,VALID,0.100563,VALID,22.5359,VALID,351,VALID,0.586328,
2008-03-04, 01:32:04,VALID,1003.33,VALID,0,VALID,97.0241,VALID,0,VALID,22.557,VALID,352,VALID,0.484766,
2008-03-04, 01:33:04,VALID,1003.29,VALID,0,VALID,97.0622,VALID,0,VALID,22.5765,VALID,3,VALID,0.137891,
2008-03-04, 01:34:04,VALID,1003.27,VALID,0,VALID,97.0851,VALID,0,VALID,22.596,VALID,271,VALID,0.301172,
2008-03-04, 01:35:04,VALID,1003.21,VALID,0,VALID,97.1156,VALID,0.100563,VALID,22.596,VALID,163,VALID,0.806641,
2008-03-04, 01:36:04,VALID,1003.22,VALID,0,VALID,97.1385,VALID,0.100563,VALID,22.6349,VALID,357,VALID,0.403125,
2008-03-04, 01:37:04,VALID,1003.17,VALID,0,VALID,97.1385,VALID,0.100563,VALID,22.6755,VALID,5,VALID,0.246484,
2008-03-04, 01:38:04,VALID,1003.18,VALID,0,VALID,97.1767,VALID,0,VALID,22.6933,VALID,25,VALID,0.384766,
2008-03-04, 01:39:04,VALID,1003.17,VALID,0,VALID,97.1919,VALID,0.100563,VALID,22.7127,VALID,337,VALID,0.445313,
2008-03-04, 01:40:04,VALID,1003.14,VALID,0,VALID,97.1691,VALID,0,VALID,22.7322,VALID,6,VALID,0.830078,
2008-03-04, 01:41:04,VALID,1003.14,VALID,0,VALID,97.1538,VALID,0,VALID,22.7499,VALID,45,VALID,0.65,
2008-03-04, 01:42:04,VALID,1003.15,VALID,0,VALID,97.108,VALID,0,VALID,22.7711,VALID,6,VALID,1.06484,
2008-03-04, 01:43:04,VALID,1003.1,VALID,0,VALID,97.1309,VALID,0.100563,VALID,22.81,VALID,21,VALID,1.59766,
2008-03-04, 01:44:04,VALID,1003.09,VALID,0,VALID,97.0851,VALID,0.100563,VALID,22.8295,VALID,7,VALID,0.850781,
2008-03-04, 01:45:04,VALID,1003.1,VALID,0,VALID,97.0394,VALID,0.100563,VALID,22.8295,VALID,13,VALID,1.52227,
2008-03-04, 01:46:04,VALID,1003.05,VALID,0,VALID,96.986,VALID,0,VALID,22.8295,VALID,24,VALID,1.37539,
2008-03-04, 01:47:04,VALID,1003.05,VALID,0.5,VALID,96.9783,VALID,0,VALID,22.8083,VALID,345,VALID,0.657812,
2008-03-04, 01:48:04,VALID,1003.04,VALID,0,VALID,96.8944,VALID,0.100563,VALID,22.8295,VALID,346,VALID,1.98281,
2008-03-04, 01:49:04,VALID,1003.06,VALID,0,VALID,96.9326,VALID,0,VALID,22.8278,VALID,16,VALID,1.11758,
2008-03-04, 01:50:04,VALID,1003.05,VALID,0,VALID,96.8792,VALID,0,VALID,22.8278,VALID,359,VALID,0.664844,
2008-03-04, 01:51:04,VALID,1003.04,VALID,0,VALID,96.8639,VALID,0,VALID,22.8083,VALID,29,VALID,1.6918,
2008-03-04, 01:52:04,VALID,1003.06,VALID,0,VALID,96.9249,VALID,0,VALID,22.8489,VALID,26,VALID,0.430859,
2008-03-04, 01:53:04,VALID,1003.05,VALID,0,VALID,96.8944,VALID,0,VALID,22.8489,VALID,352,VALID,0.832031,
2008-03-04, 01:54:04,VALID,1003.06,VALID,0,VALID,96.9326,VALID,0,VALID,22.8489,VALID,335,VALID,0.443359,
2008-03-04, 01:55:04,VALID,1003.09,VALID,0,VALID,96.8181,VALID,0.100563,VALID,22.8507,VALID,347,VALID,1.17891,
2008-03-04, 01:56:04,VALID,1003.11,VALID,0,VALID,96.8792,VALID,0,VALID,22.8295,VALID,349,VALID,0.496875,
2008-03-04, 01:57:04,VALID,1003.11,VALID,0,VALID,96.8715,VALID,0,VALID,22.8295,VALID,6,VALID,0.357031,
2008-03-04, 01:58:04,VALID,1003.12,VALID,0,VALID,96.841,VALID,0,VALID,22.81,VALID,356,VALID,0.807813,
2008-03-04, 01:59:04,VALID,1003.14,VALID,0,VALID,96.8486,VALID,0,VALID,22.7888,VALID,340,VALID,0.442969,
2008-03-04, 02:00:04,VALID,1003.15,VALID,0,VALID,96.8181,VALID,0,VALID,22.7711,VALID,6,VALID,1.09922,
2008-03-04, 02:01:04,VALID,1003.16,VALID,0,VALID,96.8029,VALID,0,VALID,22.7711,VALID,14,VALID,1.4,
2008-03-04, 02:02:04,VALID,1003.16,VALID,0,VALID,96.8029,VALID,0,VALID,22.7516,VALID,3,VALID,1.20039,
2008-03-04, 02:03:04,VALID,1003.19,VALID,0,VALID,96.841,VALID,0,VALID,22.7711,VALID,345,VALID,0.994141,
2008-03-04, 02:04:04,VALID,1003.19,VALID,0,VALID,96.8334,VALID,0.100563,VALID,22.7711,VALID,344,VALID,1.19102,
2008-03-04, 02:05:04,VALID,1003.25,VALID,0,VALID,96.7952,VALID,0,VALID,22.7516,VALID,11,VALID,1.97227,
2008-03-04, 02:06:04,VALID,1003.25,VALID,0,VALID,96.8258,VALID,0,VALID,22.7711,VALID,17,VALID,1.31719,
2008-03-04, 02:07:04,VALID,1003.27,VALID,0,VALID,96.8334,VALID,0,VALID,22.7516,VALID,25,VALID,0.935938,
2008-03-04, 02:08:04,VALID,1003.27,VALID,0,VALID,96.841,VALID,0,VALID,22.7516,VALID,342,VALID,0.834375,
2008-03-04, 02:09:04,VALID,1003.28,VALID,0,VALID,96.7571,VALID,0,VALID,22.711,VALID,29,VALID,1.1418,
2008-03-04, 02:10:04,VALID,1003.22,VALID,0,VALID,96.7266,VALID,0,VALID,22.6933,VALID,24,VALID,1.38437,
2008-03-04, 02:11:04,VALID,1003.23,VALID,0,VALID,96.6808,VALID,0,VALID,22.6738,VALID,17,VALID,0.670313,
2008-03-04, 02:12:04,VALID,1003.22,VALID,0,VALID,96.7113,VALID,0,VALID,22.6738,VALID,347,VALID,1.26563,
2008-03-04, 02:13:04,VALID,1003.19,VALID,0,VALID,96.6961,VALID,0,VALID,22.6349,VALID,348,VALID,1.16367,
2008-03-04, 02:14:04,VALID,1003.16,VALID,0,VALID,96.7647,VALID,0,VALID,22.6349,VALID,340,VALID,0.622266,
2008-03-04, 02:15:04,VALID,1003.12,VALID,0,VALID,96.7647,VALID,0,VALID,22.6154,VALID,347,VALID,0.752734,
2008-03-04, 02:16:04,VALID,1003.05,VALID,0,VALID,96.8334,VALID,0,VALID,22.6154,VALID,354,VALID,0.623438,
2008-03-04, 02:17:04,VALID,1003.01,VALID,0,VALID,96.7952,VALID,0,VALID,22.6154,VALID,358,VALID,0.828125,
2008-03-04, 02:18:04,VALID,1002.98,VALID,0,VALID,96.7418,VALID,0,VALID,22.5765,VALID,351,VALID,0.764844,
2008-03-04, 02:19:04,VALID,1002.92,VALID,0,VALID,96.7571,VALID,0,VALID,22.5782,VALID,351,VALID,0.667578,
2008-03-04, 02:20:04,VALID,1002.92,VALID,0,VALID,96.8029,VALID,0,VALID,22.5376,VALID,342,VALID,0.00117188,
2008-03-04, 02:21:04,VALID,1002.92,VALID,0,VALID,96.841,VALID,0,VALID,22.5376,VALID,320,VALID,0.464063,
2008-03-04, 02:22:04,VALID,1002.91,VALID,0,VALID,96.8563,VALID,0,VALID,22.5181,VALID,314,VALID,0.034375,
2008-03-04, 02:23:04,VALID,1002.91,VALID,0,VALID,96.8029,VALID,0,VALID,22.4987,VALID,345,VALID,0.735547,
2008-03-04, 02:24:04,VALID,1002.92,VALID,0,VALID,96.8029,VALID,0,VALID,22.5004,VALID,344,VALID,0.626953,
2008-03-04, 02:25:04,VALID,1002.9,VALID,0,VALID,96.8181,VALID,0,VALID,22.4809,VALID,346,VALID,0.732031,
2008-03-04, 02:26:04,VALID,1002.9,VALID,0,VALID,96.8486,VALID,0,VALID,22.4403,VALID,348,VALID,0.478906,
2008-03-04, 02:27:04,VALID,1002.88,VALID,0,VALID,96.8868,VALID,0,VALID,22.4597,VALID,348,VALID,0.475,
2008-03-04, 02:28:04,VALID,1002.84,VALID,0,VALID,96.8868,VALID,0,VALID,22.4208,VALID,351,VALID,0.478906,
2008-03-04, 02:29:04,VALID,1002.81,VALID,0,VALID,96.9326,VALID,0,VALID,22.4208,VALID,351,VALID,0.487891,
2008-03-04, 02:30:04,VALID,1002.76,VALID,0,VALID,96.9554,VALID,0,VALID,22.442,VALID,351,VALID,0.140234,
2008-03-04, 02:31:04,VALID,1002.73,VALID,0,VALID,96.9097,VALID,0.100563,VALID,22.4014,VALID,351,VALID,0.0691406,
2008-03-04, 02:32:04,VALID,1002.71,VALID,0,VALID,96.9631,VALID,0,VALID,22.4014,VALID,351,VALID,0.01875,
2008-03-04, 02:33:04,VALID,1002.66,VALID,0,VALID,97.0088,VALID,0,VALID,22.4014,VALID,351,VALID,0.170703,
2008-03-04, 02:34:04,VALID,1002.64,VALID,0,VALID,96.986,VALID,0,VALID,22.4225,VALID,304,VALID,0.565234,
2008-03-04, 02:35:04,VALID,1002.63,VALID,0,VALID,96.9783,VALID,0,VALID,22.3819,VALID,324,VALID,0.135937,
2008-03-04, 02:36:04,VALID,1002.59,VALID,0,VALID,96.9326,VALID,0,VALID,22.343,VALID,326,VALID,0.139844,
2008-03-04, 02:37:04,VALID,1002.59,VALID,0,VALID,96.9554,VALID,0,VALID,22.3447,VALID,337,VALID,0.278125,
2008-03-04, 02:38:04,VALID,1002.56,VALID,0,VALID,96.9631,VALID,0,VALID,22.3041,VALID,331,VALID,0.0390625,
2008-03-04, 02:39:04,VALID,1002.54,VALID,0,VALID,96.9707,VALID,0,VALID,22.3041,VALID,353,VALID,0.175391,
2008-03-04, 02:40:04,VALID,1002.56,VALID,0,VALID,96.9936,VALID,0,VALID,22.2846,VALID,353,VALID,0,
2008-03-04, 02:41:04,VALID,1002.56,VALID,0,VALID,97.0317,VALID,0,VALID,22.2846,VALID,352,VALID,0.00507812,
2008-03-04, 02:42:04,VALID,1002.57,VALID,0,VALID,97.0088,VALID,0,VALID,22.2846,VALID,282,VALID,0.736719,
2008-03-04, 02:43:04,VALID,1002.58,VALID,0,VALID,97.0622,VALID,0,VALID,22.2846,VALID,266,VALID,0.256641,
2008-03-04, 02:44:04,VALID,1002.61,VALID,0,VALID,97.0775,VALID,0,VALID,22.2829,VALID,269,VALID,0.0726563,
2008-03-04, 02:45:04,VALID,1002.62,VALID,0,VALID,97.0088,VALID,0,VALID,22.2652,VALID,351,VALID,0.648438,
2008-03-04, 02:46:04,VALID,1002.67,VALID,0,VALID,96.9783,VALID,0,VALID,22.2457,VALID,328,VALID,0.273047,
2008-03-04, 02:47:04,VALID,1002.69,VALID,0,VALID,96.986,VALID,0,VALID,22.2068,VALID,345,VALID,0.476172,
2008-03-04, 02:48:04,VALID,1002.71,VALID,0,VALID,97.047,VALID,0,VALID,22.2474,VALID,355,VALID,0.673828,
2008-03-04, 02:49:04,VALID,1002.77,VALID,0,VALID,97.1156,VALID,0,VALID,22.2669,VALID,353,VALID,0.351953,
2008-03-04, 02:50:04,VALID,1002.78,VALID,0,VALID,97.0775,VALID,0,VALID,22.2652,VALID,260,VALID,0.574219,
2008-03-04, 02:51:05,VALID,1002.73,VALID,0,VALID,96.9249,VALID,0,VALID,22.2068,VALID,16,VALID,1.03008,
2008-03-04, 02:52:05,VALID,1002.71,VALID,0,VALID,96.6961,VALID,0,VALID,22.0884,VALID,33,VALID,1.04453,
2008-03-04, 02:53:05,VALID,1002.66,VALID,0,VALID,96.7037,VALID,0,VALID,22.0706,VALID,34,VALID,0.91875,
2008-03-04, 02:54:05,VALID,1002.63,VALID,0,VALID,96.7266,VALID,0,VALID,22.0511,VALID,8,VALID,0.695313,
2008-03-04, 02:55:05,VALID,1002.69,VALID,0,VALID,96.6808,VALID,0,VALID,22.0317,VALID,360,VALID,0.970703,
2008-03-04, 02:56:05,VALID,1002.71,VALID,0,VALID,96.6503,VALID,0,VALID,22.0511,VALID,345,VALID,1.31016,
2008-03-04, 02:57:05,VALID,1002.7,VALID,0,VALID,96.6884,VALID,0,VALID,22.03,VALID,357,VALID,1.30586,
2008-03-04, 02:58:05,VALID,1002.74,VALID,0,VALID,96.7495,VALID,0,VALID,22.0901,VALID,360,VALID,1.47305,
2008-03-04, 02:59:05,VALID,1002.76,VALID,0,VALID,96.6198,VALID,0,VALID,22.1095,VALID,14,VALID,1.93672,
2008-03-04, 03:00:05,VALID,1002.85,VALID,0,VALID,96.5969,VALID,0,VALID,22.1484,VALID,4,VALID,2.06484,
2008-03-04, 03:01:05,VALID,1002.82,VALID,0,VALID,96.4519,VALID,0,VALID,22.189,VALID,24,VALID,2.20117,
2008-03-04, 03:02:05,VALID,1002.76,VALID,0,VALID,96.3909,VALID,0,VALID,22.2262,VALID,27,VALID,2.14727,
2008-03-04, 03:03:05,VALID,1002.75,VALID,0,VALID,96.3222,VALID,0,VALID,22.2246,VALID,29,VALID,2.17734,
2008-03-04, 03:04:05,VALID,1002.72,VALID,0,VALID,96.3222,VALID,0,VALID,22.2846,VALID,359,VALID,1.09063,
2008-03-04, 03:05:05,VALID,1002.68,VALID,0,VALID,96.2688,VALID,0,VALID,22.2846,VALID,12,VALID,1.23945,
2008-03-04, 03:06:05,VALID,1002.58,VALID,0,VALID,95.9027,VALID,0,VALID,22.2652,VALID,355,VALID,3.30977,
2008-03-04, 03:07:05,VALID,1002.53,VALID,0,VALID,95.8416,VALID,0,VALID,22.3235,VALID,24,VALID,2.53281,
2008-03-04, 03:08:05,VALID,1002.49,VALID,0,VALID,95.9637,VALID,0,VALID,22.343,VALID,19,VALID,1.46953,
2008-03-04, 03:09:05,VALID,1002.48,VALID,0,VALID,95.9179,VALID,0,VALID,22.3625,VALID,358,VALID,1.55273,
2008-03-04, 03:10:05,VALID,1002.49,VALID,0,VALID,96.04,VALID,0.100563,VALID,22.3625,VALID,8,VALID,1.26328,
2008-03-04, 03:11:05,VALID,1002.49,VALID,0,VALID,95.9255,VALID,0,VALID,22.3235,VALID,14,VALID,2.23945,
2008-03-04, 03:12:05,VALID,1002.51,VALID,0,VALID,95.8111,VALID,0,VALID,22.343,VALID,12,VALID,2.5125,
2008-03-04, 03:13:05,VALID,1002.53,VALID,0,VALID,95.8416,VALID,0.100563,VALID,22.3625,VALID,30,VALID,1.55586,
2008-03-04, 03:14:05,VALID,1002.52,VALID,0,VALID,95.7272,VALID,0.100563,VALID,22.3802,VALID,15,VALID,2.43477,
2008-03-04, 03:15:05,VALID,1002.53,VALID,0,VALID,95.7196,VALID,0,VALID,22.3997,VALID,8,VALID,1.24102,
2008-03-04, 03:16:05,VALID,1002.52,VALID,0,VALID,95.7653,VALID,0,VALID,22.4208,VALID,352,VALID,1.16641,
2008-03-04, 03:17:05,VALID,1002.49,VALID,0,VALID,95.6738,VALID,0.100563,VALID,22.4208,VALID,29,VALID,1.3875,
2008-03-04, 03:18:05,VALID,1002.5,VALID,0,VALID,95.834,VALID,0,VALID,22.4208,VALID,2,VALID,0.846094,
2008-03-04, 03:19:05,VALID,1002.47,VALID,0,VALID,95.8264,VALID,0,VALID,22.4597,VALID,16,VALID,0.791016,
2008-03-04, 03:20:05,VALID,1002.46,VALID,0,VALID,95.9027,VALID,0,VALID,22.4403,VALID,349,VALID,0.554297,
2008-03-04, 03:21:05,VALID,1002.47,VALID,0,VALID,95.834,VALID,0.100563,VALID,22.3997,VALID,6,VALID,1.01133,
2008-03-04, 03:22:05,VALID,1002.5,VALID,0,VALID,95.9103,VALID,0,VALID,22.4615,VALID,11,VALID,1.01758,
2008-03-04, 03:23:05,VALID,1002.52,VALID,0,VALID,95.7272,VALID,0,VALID,22.3997,VALID,3,VALID,1.48672,
2008-03-04, 03:24:05,VALID,1002.53,VALID,0,VALID,95.8035,VALID,0.100563,VALID,22.4597,VALID,32,VALID,0.539844,
2008-03-04, 03:25:05,VALID,1002.53,VALID,0,VALID,95.6967,VALID,0,VALID,22.458,VALID,359,VALID,0.974609,
2008-03-04, 03:26:05,VALID,1002.56,VALID,0,VALID,95.2466,VALID,0,VALID,22.4792,VALID,27,VALID,2.31094,
2008-03-04, 03:27:05,VALID,1002.57,VALID,0,VALID,95.361,VALID,0.100563,VALID,22.5376,VALID,10,VALID,1.32109,
2008-03-04, 03:28:05,VALID,1002.56,VALID,0,VALID,94.9796,VALID,0,VALID,22.557,VALID,37,VALID,2.59336,
2008-03-04, 03:29:05,VALID,1002.57,VALID,0,VALID,94.9643,VALID,0.100563,VALID,22.596,VALID,21,VALID,1.56797,
2008-03-04, 03:30:05,VALID,1002.56,VALID,0,VALID,95.033,VALID,0,VALID,22.5748,VALID,16,VALID,1.01367,
2008-03-04, 03:31:05,VALID,1002.57,VALID,0,VALID,95.1169,VALID,0,VALID,22.596,VALID,9,VALID,1.14805,
2008-03-04, 03:32:05,VALID,1002.6,VALID,0,VALID,95.1855,VALID,0,VALID,22.596,VALID,89,VALID,0.838672,
2008-03-04, 03:33:05,VALID,1002.65,VALID,0,VALID,95.3076,VALID,0,VALID,22.596,VALID,27,VALID,0.436719,
2008-03-04, 03:34:05,VALID,1002.7,VALID,0,VALID,95.2313,VALID,0.100563,VALID,22.5553,VALID,153,VALID,0.648047,
2008-03-04, 03:35:05,VALID,1002.75,VALID,0,VALID,95.1016,VALID,0,VALID,22.557,VALID,147,VALID,1.14648,
2008-03-04, 03:36:05,VALID,1002.81,VALID,0,VALID,95.1627,VALID,0,VALID,22.596,VALID,127,VALID,1.02695,
2008-03-04, 03:37:05,VALID,1002.88,VALID,0,VALID,95.3763,VALID,0,VALID,22.5942,VALID,140,VALID,0.716016,
2008-03-04, 03:38:05,VALID,1002.91,VALID,0,VALID,95.3305,VALID,0.100563,VALID,22.5748,VALID,128,VALID,0.96875,
2008-03-04, 03:39:05,VALID,1002.97,VALID,0,VALID,95.2313,VALID,0,VALID,22.557,VALID,113,VALID,1.44766,
2008-03-04, 03:40:05,VALID,1003.01,VALID,0,VALID,95.0864,VALID,0,VALID,22.5765,VALID,106,VALID,1.90508,
2008-03-04, 03:41:05,VALID,1003.03,VALID,0,VALID,95.1855,VALID,0,VALID,22.5765,VALID,121,VALID,1.10156,
2008-03-04, 03:42:05,VALID,1003.1,VALID,0,VALID,94.9796,VALID,0,VALID,22.5748,VALID,104,VALID,1.35,
2008-03-04, 03:43:05,VALID,1003.11,VALID,0,VALID,94.949,VALID,0.100563,VALID,22.5765,VALID,112,VALID,1.73906,
2008-03-04, 03:44:05,VALID,1003.16,VALID,0,VALID,94.8804,VALID,0,VALID,22.5765,VALID,91,VALID,1.47344,
2008-03-04, 03:45:05,VALID,1003.22,VALID,0,VALID,94.827,VALID,0,VALID,22.557,VALID,105,VALID,1.65234,